Wind_Speed
33 33 34 34 34 35 36 37 37 35 35 35 35 34 32 32 32 31 29 26 27 28 26 25 25 25 24 23 22 23 24 25 24 24 22 21 19 18 17 16 14 12 11
34 34 34 35 36 37 37 37 37 36 36 35 35 34 32 32 32 31 30 27 26 27 26 24 24 23 23 23 22 22 23 25 26 26 25 24 22 21 19 18 16 15 13
35 35 35 36 37 37 37 37 36 37 37 36 35 35 33 32 32 31 31 29 27 27 26 24 23 22 22 21 20 20 21 24 26 28 28 26 25 24 22 21 19 18 16
34 34 35 36 36 36 36 37 37 37 37 38 36 35 34 33 32 32 32 30 28 28 28 26 24 22 21 20 19 19 19 21 24 26 28 28 28 26 25 24 23 22 20
35 35 35 36 36 36 34 35 35 35 36 37 36 36 35 34 33 33 32 31 30 29 28 26 25 23 22 21 19 19 19 19 20 23 26 28 30 30 29 28 27 26 24
36 36 35 35 34 34 33 33 34 35 36 36 37 36 36 35 34 33 33 32 31 30 28 26 25 24 23 22 21 20 20 20 20 21 23 25 27 28 30 31 31 29 28
36 36 36 35 34 32 31 32 33 35 35 35 36 35 35 35 34 34 33 32 31 29 27 26 26 24 23 22 21 21 20 20 21 21 22 23 24 26 27 31 33 33 31
38 38 37 36 35 33 32 31 31 31 34 36 35 35 35 36 36 36 34 33 32 30 27 26 25 23 22 21 21 20 20 19 19 20 20 22 22 23 25 26 31 34 34
40 40 39 37 35 34 32 31 31 31 32 34 34 36 37 38 36 36 34 34 33 31 28 27 25 24 23 21 20 19 18 17 17 17 18 19 20 21 22 23 25 29 32
41 40 39 37 35 35 34 33 32 32 31 33 35 36 38 38 37 36 35 35 33 31 30 29 27 25 24 22 21 19 18 16 15 15 15 16 17 17 19 21 22 24 28
40 39 37 36 35 34 34 33 33 33 32 33 34 35 36 38 39 36 33 34 33 32 30 29 27 26 25 23 21 19 18 16 15 14 14 14 14 15 16 17 19 21 24
38 37 37 36 35 35 35 34 34 33 33 33 33 34 34 35 38 39 37 34 33 32 31 30 29 27 26 24 22 21 19 16 14 13 12 12 12 13 13 14 16 18 20
37 37 37 36 36 36 36 36 36 36 36 36 35 34 34 33 36 39 39 38 35 33 32 32 31 30 28 26 25 22 19 17 15 13 12 11 11 11 12 13 14 15 17
38 39 39 39 39 39 39 39 39 40 40 40 38 37 36 35 37 39 39 39 37 36 34 33 33 32 30 29 27 24 22 19 16 14 12 10 10 9 10 11 12 14 16
41 42 43 44 44 44 44 44 43 43 43 44 44 43 42 40 39 40 41 40 39 37 37 36 35 35 33 31 29 26 25 22 19 17 14 13 11 11 10 10 11 12 14
43 44 46 47 48 49 50 50 50 49 48 48 48 48 47 44 42 41 41 41 41 40 39 38 37 37 36 34 31 29 27 25 22 19 16 15 13 12 11 11 11 12 13
43 45 47 49 51 52 54 54 54 53 53 53 53 52 52 50 47 45 44 43 43 42 42 41 40 38 38 36 34 32 30 27 24 21 19 16 14 14 13 12 12 12 13
45 46 48 50 53 55 56 57 58 58 58 57 57 57 57 56 53 51 48 45 45 45 44 43 42 40 40 39 37 35 32 30 27 24 21 18 16 14 14 13 13 13 13
46 48 50 52 53 55 57 59 61 61 62 62 62 61 61 61 60 57 54 51 48 47 46 46 44 43 42 41 40 38 35 32 29 26 24 21 18 16 15 14 14 14 14
48 49 50 51 53 55 57 59 60 61 62 63 63 63 64 64 64 63 60 57 54 51 48 48 47 46 44 43 42 40 38 35 33 30 26 23 20 18 16 15 15 15 15
49 49 50 51 52 52 53 55 57 58 58 60 61 61 65 67 67 67 66 62 60 57 54 51 49 48 47 45 43 42 41 39 36 33 29 26 22 20 18 16 15 15 15
48 49 49 48 47 47 47 49 52 54 56 58 59 59 61 66 68 69 69 67 64 61 58 55 52 51 49 47 45 44 43 42 39 36 32 28 25 22 20 18 17 16 16
47 47 46 44 43 43 43 45 46 48 50 53 55 57 58 60 64 68 70 70 68 65 62 59 55 52 49 49 48 46 45 44 42 39 35 31 28 25 22 20 19 17 17
45 44 42 41 40 39 40 41 41 42 43 46 50 52 54 56 59 63 66 68 68 67 64 61 58 55 52 50 49 48 47 45 44 41 37 34 30 27 24 22 20 19 18
43 41 39 38 37 36 35 33 32 33 34 38 42 46 48 50 53 57 60 63 65 65 64 62 61 58 54 51 49 49 47 45 44 42 39 36 33 29 26 24 22 20 19
41 39 37 36 34 31 28 25 23 23 25 30 35 40 44 45 47 50 53 56 60 62 62 61 60 61 57 51 48 49 47 45 45 43 40 38 35 32 28 26 23 21 20
Wind_Direction
295 295 294 294 293 292 290 285 279 273 268 262 258 256 256 257 257 259 257 253 251 252 251 252 252 252 253 254 253 247 242 238 235 234 233 232 231 231 231 229 227 226 223
292 293 294 295 294 292 290 285 278 269 265 262 258 256 256 254 254 254 254 248 246 247 247 248 250 251 252 252 252 248 243 237 234 234 235 234 233 232 232 231 229 226 223
291 291 292 293 292 290 287 284 276 267 264 262 259 256 255 254 252 251 251 247 243 242 243 245 248 248 248 249 250 250 245 240 236 234 235 236 236 235 234 234 233 230 227
289 289 290 292 290 289 285 280 273 266 262 259 258 257 255 253 252 251 249 246 241 239 241 242 245 246 246 246 247 248 247 242 238 236 236 237 237 238 238 237 236 234 232
288 288 289 290 288 286 283 277 268 263 258 257 257 255 254 253 251 251 249 246 241 239 238 238 241 243 245 246 245 245 245 244 241 238 236 238 239 240 241 240 239 238 236
288 288 288 289 287 282 279 275 267 260 257 255 254 254 253 252 251 251 249 245 242 239 236 235 239 242 244 245 245 246 245 245 243 240 238 240 241 242 242 242 241 239 238
288 287 287 287 286 283 279 277 269 259 256 253 252 251 249 248 250 249 247 244 241 238 236 234 237 240 242 242 243 245 244 243 242 242 241 241 242 244 245 244 243 241 239
287 286 285 285 284 281 280 278 272 264 258 253 252 251 248 248 248 248 246 243 240 238 238 238 236 238 239 238 237 239 241 241 240 241 242 241 242 244 246 248 245 242 240
285 284 284 283 282 281 279 274 270 266 259 253 250 248 247 247 247 246 245 242 241 239 236 237 235 234 233 231 232 232 233 235 236 238 241 242 242 243 245 247 247 243 242
287 285 283 281 279 278 278 274 271 268 265 259 252 250 249 247 245 244 243 240 237 236 234 232 231 229 226 224 223 225 228 229 232 235 237 239 241 242 245 246 247 245 245
288 285 282 280 279 277 276 274 271 268 264 262 256 250 248 245 242 239 236 235 234 233 232 230 227 223 221 218 217 218 223 226 228 231 233 235 238 240 243 246 248 248 247
288 286 283 281 278 277 274 271 269 267 263 261 257 249 244 243 240 236 231 230 230 229 228 226 224 219 217 214 213 214 218 223 224 226 230 232 235 239 242 245 249 249 248
289 287 284 282 279 277 275 271 267 265 263 262 259 254 246 242 241 236 232 228 226 226 224 223 221 217 215 212 212 213 216 218 220 224 228 232 235 238 242 244 248 251 250
286 284 283 282 280 278 276 272 268 264 261 260 258 257 251 243 239 236 232 228 225 224 222 221 220 217 214 212 212 211 213 215 218 222 224 229 234 239 245 250 253 254 255
284 283 281 280 278 276 275 272 269 264 261 258 256 255 254 251 247 240 233 228 225 223 221 221 219 217 215 213 213 212 214 215 217 222 226 233 240 247 254 259 261 262 262
285 283 281 279 277 275 273 271 268 264 259 256 254 252 251 250 249 244 237 231 226 224 223 222 220 218 216 214 214 214 215 216 217 220 226 232 239 247 255 262 267 269 269
287 285 282 280 277 275 272 269 266 263 260 255 252 249 248 247 245 243 238 232 228 225 224 223 222 220 218 217 215 216 216 216 218 221 226 231 238 246 253 262 270 275 276
290 287 284 281 278 275 271 268 265 262 259 254 250 247 245 244 242 241 239 234 229 226 225 224 223 222 221 219 217 217 217 217 219 222 226 231 238 246 254 262 270 276 279
294 291 288 285 281 276 272 268 265 262 258 254 249 245 243 241 239 238 237 235 232 228 226 225 224 223 222 221 220 219 218 218 220 223 228 232 238 246 253 260 268 275 279
298 295 293 289 285 280 275 270 266 262 258 253 249 244 240 239 237 237 235 234 233 229 226 225 225 225 223 222 221 220 220 220 221 224 228 232 238 244 250 257 265 274 279
303 300 297 293 289 284 278 272 266 261 255 251 247 243 238 236 235 235 234 233 232 231 229 226 226 225 224 223 222 221 221 221 222 224 227 230 236 242 247 255 264 272 277
307 304 302 298 294 288 281 275 267 261 254 249 245 240 237 234 233 232 233 232 231 231 231 228 226 225 225 224 223 222 222 222 223 224 226 229 234 240 245 252 261 270 278
311 309 306 302 298 291 285 279 271 261 254 247 241 237 235 233 231 230 231 231 230 230 230 229 228 225 225 224 223 222 222 222 223 223 225 228 231 237 243 250 258 267 276
316 313 311 306 302 296 290 283 273 263 253 245 238 234 232 231 230 229 229 229 230 229 229 229 229 227 226 224 222 222 222 221 222 222 224 227 230 235 240 246 254 262 271
320 318 315 311 308 303 297 289 275 263 250 240 234 229 227 228 228 227 227 227 227 227 227 227 227 227 226 224 224 223 223 222 222 222 223 225 228 233 238 243 250 258 266
324 322 319 316 313 309 303 295 279 260 243 233 226 222 221 223 223 223 224 225 225 225 226 226 224 224 224 222 222 223 222 222 220 220 222 224 227 231 236 240 246 253 261
Height
5850 5848 5846 5844 5843 5842 5841 5840 5841 5843 5845 5847 5850 5853 5855 5857 5858 5859 5861 5864 5866 5867 5870 5872 5873 5876 5877 5880 5881 5883 5886 5889 5892 5895 5897 5899 5901 5902 5904 5906 5907 5909 5911
5843 5842 5840 5837 5835 5833 5832 5832 5832 5834 5836 5839 5842 5844 5847 5849 5852 5852 5854 5857 5859 5861 5864 5866 5868 5870 5872 5874 5876 5878 5881 5884 5887 5890 5893 5895 5897 5899 5901 5903 5905 5907 5909
5835 5834 5832 5830 5828 5825 5823 5823 5824 5825 5827 5830 5833 5836 5839 5842 5844 5846 5848 5851 5853 5855 5858 5861 5863 5865 5867 5869 5871 5873 5876 5878 5882 5885 5888 5891 5893 5896 5898 5900 5903 5905 5907
5827 5826 5824 5821 5819 5817 5815 5815 5816 5817 5819 5821 5824 5827 5830 5834 5837 5839 5841 5844 5846 5848 5851 5854 5857 5860 5862 5864 5867 5869 5871 5873 5877 5880 5883 5886 5889 5892 5894 5897 5899 5902 5904
5819 5817 5816 5813 5810 5808 5807 5806 5806 5808 5810 5812 5815 5819 5822 5825 5829 5831 5834 5836 5838 5841 5844 5847 5851 5854 5857 5860 5862 5864 5867 5869 5872 5875 5878 5881 5884 5887 5890 5893 5895 5898 5900
5810 5809 5808 5805 5803 5801 5799 5798 5798 5799 5801 5804 5806 5810 5814 5817 5820 5823 5826 5829 5832 5834 5836 5839 5844 5849 5852 5855 5857 5860 5862 5864 5867 5870 5873 5875 5878 5881 5884 5887 5890 5893 5896
5802 5800 5799 5797 5795 5793 5792 5791 5791 5791 5793 5795 5798 5801 5805 5809 5812 5815 5818 5822 5825 5828 5831 5834 5839 5843 5847 5850 5852 5855 5857 5859 5862 5865 5867 5870 5873 5876 5878 5881 5884 5887 5891
5792 5790 5790 5788 5787 5786 5785 5784 5783 5783 5785 5787 5790 5792 5796 5801 5804 5807 5811 5814 5818 5821 5825 5829 5833 5837 5841 5844 5847 5849 5852 5854 5857 5859 5862 5865 5867 5870 5872 5875 5877 5881 5884
5782 5780 5780 5779 5778 5778 5777 5776 5776 5777 5778 5779 5781 5784 5788 5791 5796 5800 5803 5807 5810 5814 5819 5823 5827 5831 5835 5839 5842 5844 5847 5849 5852 5854 5857 5859 5862 5864 5867 5869 5871 5874 5878
5771 5770 5769 5769 5769 5768 5768 5769 5769 5769 5770 5771 5773 5775 5779 5783 5787 5791 5794 5798 5802 5807 5812 5817 5821 5825 5829 5833 5837 5839 5842 5844 5847 5849 5852 5854 5857 5859 5861 5863 5865 5868 5871
5760 5759 5758 5758 5759 5759 5759 5760 5760 5761 5762 5763 5765 5767 5770 5773 5776 5782 5786 5790 5795 5799 5804 5809 5814 5819 5823 5827 5831 5835 5837 5840 5842 5844 5847 5849 5852 5854 5856 5858 5860 5863 5865
5749 5748 5747 5748 5748 5749 5749 5751 5752 5753 5754 5755 5757 5760 5761 5763 5767 5772 5777 5781 5786 5791 5797 5802 5807 5812 5817 5822 5826 5829 5832 5835 5838 5840 5843 5845 5847 5849 5851 5854 5856 5858 5860
5740 5738 5737 5737 5737 5738 5739 5740 5742 5744 5745 5747 5749 5751 5753 5755 5757 5762 5768 5773 5778 5784 5789 5795 5800 5806 5811 5816 5820 5824 5827 5830 5833 5836 5838 5841 5843 5845 5847 5849 5851 5853 5855
5731 5729 5727 5726 5726 5726 5727 5729 5731 5733 5735 5737 5739 5741 5745 5747 5750 5753 5759 5764 5771 5777 5783 5788 5793 5799 5804 5809 5813 5818 5822 5825 5829 5832 5834 5837 5839 5841 5843 5844 5846 5848 5850
5720 5719 5717 5715 5714 5714 5715 5716 5717 5720 5723 5726 5728 5731 5734 5737 5741 5745 5749 5756 5762 5769 5775 5780 5785 5791 5796 5802 5807 5812 5816 5820 5823 5827 5829 5832 5835 5837 5838 5840 5841 5843 5845
5709 5707 5704 5703 5701 5700 5700 5701 5702 5705 5709 5712 5716 5719 5723 5726 5731 5735 5740 5747 5753 5760 5766 5771 5777 5783 5788 5795 5800 5805 5809 5814 5817 5821 5824 5827 5830 5832 5834 5835 5837 5838 5839
5697 5694 5691 5688 5686 5685 5684 5684 5685 5687 5691 5696 5700 5705 5710 5715 5720 5725 5730 5736 5743 5750 5756 5763 5769 5775 5780 5787 5792 5798 5803 5807 5811 5815 5819 5822 5825 5827 5829 5831 5832 5833 5834
5683 5679 5675 5672 5669 5667 5665 5665 5665 5668 5671 5676 5682 5688 5694 5700 5706 5712 5718 5725 5732 5739 5746 5753 5759 5766 5771 5778 5784 5790 5796 5801 5805 5809 5813 5817 5819 5822 5824 5826 5827 5828 5829
5667 5662 5658 5654 5650 5647 5645 5644 5644 5646 5649 5654 5661 5668 5675 5682 5690 5697 5704 5712 5720 5727 5735 5742 5749 5756 5762 5769 5776 5782 5788 5794 5798 5803 5807 5811 5814 5817 5819 5821 5822 5823 5824
5651 5645 5639 5634 5629 5625 5622 5621 5620 5622 5625 5630 5637 5645 5654 5663 5672 5680 5688 5697 5706 5714 5722 5731 5738 5745 5753 5760 5766 5773 5780 5786 5791 5796 5801 5805 5808 5811 5813 5815 5817 5818 5818
5633 5627 5620 5614 5608 5603 5599 5597 5596 5598 5601 5607 5614 5622 5632 5642 5651 5661 5671 5681 5691 5700 5709 5718 5726 5734 5742 5750 5758 5764 5771 5777 5783 5789 5794 5798 5802 5805 5807 5810 5811 5812 5813
5617 5609 5601 5594 5588 5582 5578 5575 5574 5575 5579 5584 5592 5600 5610 5620 5631 5642 5653 5663 5675 5685 5695 5705 5714 5723 5731 5740 5747 5754 5762 5769 5775 5781 5786 5791 5796 5799 5801 5803 5805 5807 5807
5601 5593 5585 5577 5571 5565 5559 5556 5553 5553 5557 5563 5571 5579 5589 5600 5611 5623 5635 5646 5658 5669 5681 5692 5702 5711 5720 5729 5737 5744 5752 5759 5766 5772 5779 5784 5789 5792 5795 5797 5799 5801 5802
5587 5578 5570 5562 5555 5549 5543 5538 5535 5534 5538 5545 5553 5562 5572 5583 5594 5606 5618 5629 5642 5654 5667 5679 5691 5700 5708 5716 5725 5733 5740 5749 5756 5764 5771 5777 5781 5785 5788 5791 5793 5795 5796
5575 5566 5558 5550 5542 5535 5528 5523 5520 5520 5523 5530 5537 5546 5557 5568 5579 5591 5604 5616 5628 5639 5650 5663 5676 5686 5696 5705 5714 5722 5731 5739 5747 5755 5762 5769 5774 5777 5781 5784 5787 5789 5790
5565 5556 5548 5540 5532 5525 5518 5513 5510 5510 5513 5519 5525 5535 5546 5556 5566 5577 5589 5600 5613 5625 5637 5649 5662 5674 5684 5694 5703 5712 5720 5729 5737 5745 5753 5760 5765 5770 5774 5777 5780 5782 5784